ONEWEB-0203, 48235

Orbit data source: Space-Track

ONEWEB-0203, 48235 is a payload satellite owned by One Web (NAA) (UK) in LEO that was launched on Sun, 25 Apr 2021 UTC via a SOYUZ-2-1B launch vehicle from the Vostochny Cosmodrome (VOSTO). Payload-class satellites include a variety of spacecraft equipped with specific instruments for various scientific and technological missions. These include communications satellites like Starlink; space stations such as the ISS; scientific satellites like the Hubble; Earth observation satellites from companies like Planet Labs, Umbra, and HawkEye 360; GPS; miniature CubeSats for education and research; and military/defense satellites.

Loading next visibility...
Identifier
48235, 2021-031AB
Orbit
LEO
Country
Flag of UKUK
Related business
Manufacturer
One Web
Mission
Operational Commercial Communications
Bus & Motor
ARROW, Unknown motor
Mass
148 kg wet, ~140 kg dry
Launch date (UTC)
2021-04-25 (5 years ago)
Launch vehicle
SOYUZ-2-1B
Launch site
Vostochny Cosmodrome (VOSTO)
Object type
Payload
Rocket body
Debris
Shape & HBR
Trap Box + 2 Pan, 6.7 m
Radar Cross Section
3.464 m², Large (>1 m²)

Expand to show TLE details & history
Last TLE update: 1 day ago

TLE from 1 day ago
0 ONEWEB-0203
1 48235U 21031AB  25306.49704634 -.00000224  00000-0 -63835-3 0  9990
2 48235  87.9006 334.8533 0002068 100.0413 260.0950 13.14504521218490
Epoch: 2025-11-02T11:55Z
TLE epoch observation values (Epoch: 2025-11-02T11:55:44.803Z)
Latitude
-0.00005°
Longitude
113.90469°
Altitude
1,208.948 km
Speed
7.249 km/s
True Right ascension
22h 19m 24s
True Declination
0° 00' 00"
Sunlit
Object was in daylight at epoch
Visualization orbit readout
Latitude
Unknown
Longitude
Unknown
Altitude
Unknown
Speed
Unknown
Apparent Right ascension
Unknown
Apparent Declination
Unknown
Sunlit
N/A
Visualization observer readout
Local Sidereal Time
10:03:11
Azimuth
Unknown
Elevation
Unknown
Doppler factor
Unknown
Orbital elements
Apogee altitude
1,204.465 km
Perigee altitude
1,201.33 km
Semi-major axis
7,581.034 km
Eccentricity
0.00021
Inclination
87.9006°
RAAN
334.8533°
Arg. of periapsis
100.0413°
True anomaly
260.07166°
Mean anomaly
260.095°
Eccentric anomaly
260.08333°
Mean motion
3.28814 °/min
Orbital period
109.48 mins
BSTAR
-0.00063835
Loading maneuver chart data...
Computing Atmospheric mass density...
Loading historical data...
Loading historical data...
Loading historical data...
Loading historical data...
Loading historical data...
Loading historical data...
Loading historical data...

Documentation

Showing up to 5 results
|